Lid_Strength_Index
4 3 2 2 2 4 3 2 2 1 1 2 2 2 2 2 1 1 0 0 0 0 1 1 2 2 2 2 2 2 2 2 1 3 2 3 4 6 9 10 10 9 9
7 4 4 3 2 4 3 3 1 1 1 1 1 2 2 2 1 1 1 0 1 1 1 1 2 1 2 2 2 2 3 2 1 4 3 5 4 7 9 11 10 10 9
10 5 4 3 3 3 5 3 2 1 1 1 1 2 2 2 2 2 1 0 0 1 1 1 1 1 1 1 2 2 2 2 1 2 4 7 7 7 9 12 11 11 10
10 9 5 4 3 2 5 4 2 1 1 1 1 1 2 3 1 1 1 1 0 1 1 1 1 1 1 1 1 1 2 2 2 2 3 4 7 9 11 11 12 11 10
8 9 6 4 3 2 4 5 3 2 1 1 1 1 2 1 1 1 2 1 0 1 1 1 1 1 1 1 1 1 1 1 2 3 4 5 8 8 11 13 14 12 11
7 7 8 4 3 2 2 4 4 2 2 1 1 1 2 2 2 2 1 1 0 1 1 1 2 1 1 1 1 1 1 2 2 3 4 6 8 9 12 13 14 14 12
7 7 9 8 5 4 2 2 3 3 3 3 2 1 2 2 2 1 1 1 1 1 1 1 2 2 1 1 1 2 2 2 2 3 4 6 8 9 11 13 14 15 13
9 7 7 8 5 4 3 2 2 2 2 2 2 2 1 1 1 1 1 1 1 1 1 1 1 1 1 1 2 2 2 3 4 5 7 8 9 11 11 12 13 15 14
9 10 8 9 7 4 4 3 2 2 2 2 2 2 2 2 2 1 1 1 1 1 1 2 2 2 2 2 3 3 4 4 5 7 9 9 10 11 12 12 12 13 15
11 10 11 10 9 6 4 3 2 2 2 2 1 2 2 2 2 1 1 1 1 2 2 2 2 2 3 4 5 6 7 7 9 9 11 11 11 12 12 12 12 12 13
12 12 12 11 10 10 7 5 3 3 3 2 2 2 2 2 2 2 1 1 2 2 3 3 3 4 5 6 6 6 8 8 10 12 10 12 12 12 13 13 13 13 13
11 11 10 10 10 11 11 10 9 6 4 4 3 3 3 3 2 2 2 2 3 2 3 3 4 5 6 7 7 9 9 9 12 12 13 12 15 14 13 13 13 13 13
11 10 10 11 11 11 10 11 10 10 9 7 5 4 4 3 3 2 2 3 3 3 3 4 5 7 8 8 8 8 10 10 11 11 13 14 14 15 14 13 13 13 12
10 11 11 11 10 10 10 10 9 9 9 9 9 7 6 5 4 4 5 6 6 6 6 5 6 7 8 8 8 9 11 11 11 12 13 13 13 13 14 15 14 13 14
10 11 11 11 10 10 10 9 9 9 8 8 8 8 8 6 5 6 6 7 7 7 8 8 9 9 9 9 9 10 11 12 13 13 13 14 14 13 13 14 14 15 15
9 10 10 11 10 10 10 9 9 8 8 8 8 9 9 8 9 9 10 9 10 10 10 10 10 10 9 10 11 11 12 14 14 14 15 14 15 13 12 12 12 13 14
9 10 10 10 11 11 10 10 9 9 9 9 11 11 11 10 11 12 11 11 11 12 12 12 13 13 12 11 11 12 13 14 14 14 15 15 15 14 13 12 11 12 11
9 10 10 10 10 10 9 9 9 10 11 12 12 12 12 12 12 11 11 12 12 12 13 13 13 13 14 11 11 12 14 14 14 14 15 15 15 14 14 15 14 14 14
10 10 10 10 10 10 10 11 12 12 12 12 12 12 12 15 13 13 13 12 13 14 13 14 13 14 14 11 11 12 14 15 14 14 14 14 15 14 14 15 15 15 15
11 10 10 11 11 12 11 13 13 13 12 12 12 13 14 15 13 13 14 15 15 14 14 14 14 14 14 11 11 13 14 14 15 15 15 14 15 14 13 15 15 16 16
11 11 11 12 12 13 13 13 14 14 14 14 14 15 16 14 13 13 15 14 15 15 14 15 15 14 14 13 11 12 14 14 15 15 16 15 14 13 12 13 15 15 15
13 12 13 14 14 14 14 14 14 15 16 17 17 17 15 14 13 13 14 14 14 15 15 15 15 15 15 13 12 11 13 13 16 15 16 15 13 12 12 13 13 13 14
15 15 15 15 16 16 15 15 16 16 17 18 19 15 17 13 14 13 14 15 14 15 16 16 16 16 15 14 12 12 12 13 15 15 15 14 13 12 13 12 13 14 14
16 17 17 18 18 18 18 17 17 16 15 19 19 19 19 19 17 14 14 14 14 15 15 15 15 16 15 14 13 13 13 13 14 14 14 14 13 13 14 14 13 14 15
18 18 19 19 20 20 20 21 19 19 18 19 19 19 20 21 20 18 16 15 15 14 15 15 15 16 16 14 13 13 14 14 14 15 15 15 15 15 15 16 16 15 16
19 20 21 21 22 23 23 22 22 20 20 19 19 20 20 21 20 21 21 14 14 13 12 12 14 15 14 13 12 12 12 13 13 16 16 17 16 17 17 17 17 17 17